CORVUS-BC 4 (43767 NORAD) Tracking and Keplerian Element Data

This shows tracking and keplerian element data for the satellite.

Feedback or suggestion? Click here.




ElementValue
Catalog43767
NameCORVUS-BC 4
Epoch Orbit2112
Epoch Day114.15580375
Epoch Year2019
RAAN186.6636
Inclination97.7469
Eccentricity0.0012796
Argument of Perigee143.2184
Mean Anonmoly216.9917
Mean Motion14.94546547
Decay Rate3.98E-06
L11 43767U 18099K 19114.15580375 .00000398 00000-0 42089-4 0 9991
L22 43767 97.7469 186.6636 0012796 143.2184 216.9917 14.94546547 21125

Live tracking and technical data element details for CORVUS-BC 4 (NORAD 43767). CORVUS-BC 4 can be tracked NOW for your location showing map with azimuth and elevation plus other details from your city location.

Track the satellite on the map from your city or location and see movement details for azimuth, elevation, latitude, longitude, range, height, and movement on the map or in text.







IsCatalogInMostPopularTable: catalog: 43767, numindb: 32
Update: records affected: 1



GetName: 43767 CORVUS-BC 4

Hit Count: updated at: Wed, 24 Apr 2019 18:31:32 GMT